This demonstration page uses our WeatherBlox Daily Observations layout. Learn more.

Left ArrowRight Arrow

38.88101, -77.10428

Hourly Observations for April 23, 2021

Temp ( °F °C ) Dew Point ( °F °C ) Humidity (%) Winds ( mph kmh ) Pressure ( in mb ) Visibility ( mi km ) Precip ( " mm )
12:52 am 00:52 Partly Cloudy 44 6.7 26 -3.3 49 49 SW 3 6 30.11 1020 10 16 0.00 0.00
1:52 am 01:52 Mostly Clear 44 6.7 26 -3.3 49 49 NW 3 6 30.12 1020 10 16 0.00 0.00
2:52 am 02:52 Clear 41 5 28 -2.2 60 60 WSW 5 7 30.12 1020 10 16 0.00 0.00
3:52 am 03:52 Clear 40 4.4 28 -2.2 63 63 WSW 7 11 30.12 1020 10 16 0.00 0.00
4:52 am 04:52 Clear 41 5 28 -2.2 60 60 Calm 30.14 1021 10 16 0.00 0.00
5:52 am 05:52 Clear 40 4.4 28 -2.2 63 63 WSW 6 9 30.15 1021 10 16 0.00 0.00
6:52 am 06:52 Sunny 38 3.3 29 -1.7 70 70 SSW 6 9 30.16 1022 10 16 0.00 0.00
7:52 am 07:52 Sunny 44 6.7 29 -1.7 55 55 Calm 30.18 1022 10 16 0.00 0.00
8:52 am 08:52 Sunny 51 10.6 27 -2.8 39 39 W 7 11 30.19 1022 10 16 0.00 0.00
9:52 am 09:52 Mostly Sunny 53 11.7 26 -3.3 35 35 W 13 20 30.18 1022 10 16 0.00 0.00
10:52 am 10:52 Mostly Sunny 55 12.8 27 -2.8 34 34 W 15 24 30.17 1022 10 16 0.00 0.00
11:52 am 11:52 Mostly Sunny 58 14.4 27 -2.8 31 31 WSW 9 15 30.15 1021 10 16 0.00 0.00
12:52 pm 12:52 Sunny 60 15.6 28 -2.2 30 30 WSW 9 15 30.12 1020 10 16 0.00 0.00
1:52 pm 13:52 Mostly Cloudy 63 17.2 28 -2.2 27 27 WSW 13 20 30.09 1019 10 16 0.00 0.00
2:52 pm 14:52 Mostly Cloudy 62 16.7 27 -2.8 26 26 W 13 20 30.08 1019 10 16 0.00 0.00
3:52 pm 15:52 Cloudy 62 16.7 28 -2.2 28 28 SW 13 20 30.06 1018 10 16 0.00 0.00
4:52 pm 16:52 Cloudy 63 17.2 28 -2.2 27 27 W 13 20 30.04 1017 10 16 0.00 0.00
5:52 pm 17:52 Cloudy 62 16.7 29 -1.7 29 29 WSW 10 17 30.04 1017 10 16 0.00 0.00
6:52 pm 18:52 Mostly Cloudy 62 16.7 29 -1.7 29 29 SW 12 19 30.04 1017 10 16 0.00 0.00
7:52 pm 19:52 Mostly Cloudy 61 16.1 28 -2.2 29 29 SW 8 13 30.05 1018 10 16 0.00 0.00
8:52 pm 20:52 Mostly Clear 59 15 29 -1.7 32 32 WSW 5 7 30.07 1018 10 16 0.00 0.00
9:52 pm 21:52 Mostly Clear 56 13.3 31 -0.6 39 39 SW 6 9 30.08 1019 10 16 0.00 0.00
10:01 pm 22:01 Mostly Clear 55 12.8 32 0 42 42 SW 5 7 30.08 1019 10 16 0.00 0.00
10:52 pm 22:52 Mostly Clear 53 11.7 35 1.7 51 51 SW 5 7 30.08 1019 10 16 0.00 0.00
11:52 pm 23:52 Clear 52 11.1 33 0.6 49 49 S 6 9 30.07 1018 10 16 0.00 0.00

Powered by AerisWeather